Regional Weather Roundup
Issued by NWS

Home | Current Version | Previous Version | Text Only | Print | Product List | Glossary On
Versions: 1 2 3 4 5 6 7 8 9 10 11 12 13 14 15 16 17 18 19 20 21 22 23 24 25 26 27 28 29 30 31 32 33 34 35 36 37 38 39 40 41 42 43 44 45 46 47 48 49 50
000
ASUS44 KLUB 210110
RWRTX
WEST TEXAS WEATHER ROUNDUP
NATIONAL WEATHER SERVICE LUBBOCK TX
700 PM CST SAT DEC 20 2014

NOTE: "FAIR" INDICATES FEW OR NO CLOUDS BELOW 12,000 FEET WITH NO
SIGNIFICANT WEATHER AND/OR OBSTRUCTIONS TO VISIBILITY.

TXZ004-006>008-010-012-014-016-OKZ002-210200-
TEXAS PANHANDLE/OKLAHOMA PANHANDLE

CITY           SKY/WX    TMP DP  RH WIND       PRES   REMARKS
AMARILLO       MOCLDY    42  35  76 S12       30.01S
BORGER         MOCLDY    45  34  65 S12       30.01S
CANADIAN       MOCLDY    43  37  81 S9        30.03F
DALHART        PTCLDY    35  25  66 S3        29.99S
DUMAS          MOCLDY    38  25  60 CALM      30.00R
GUYMON         MOCLDY    39  29  67 S3        30.00R
HEREFORD       MOCLDY    40  36  84 S9        30.01S WCI  34
PAMPA          MOCLDY    40  33  77 S9        30.02F WCI  34
PERRYTON       MOCLDY    39  34  81 SE9       30.02R WCI  33
$$

TXZ026-029-035-045-048-210200-
SOUTHERN PANHANDLE/SOUTH PLAINS/ROLLING PLAINS

CITY           SKY/WX    TMP DP  RH WIND       PRES   REMARKS
CHILDRESS      CLOUDY    48  39  71 S10       30.08R
SEMINOLE       PTCLDY    45  28  53 CALM      30.04R
LUBBOCK        PTCLDY    38  34  85 SE9       30.03F WCI  31
PLAINVIEW      MOCLDY    40  36  87 S7        30.02S WCI  35
SNYDER         MOCLDY    47  41  80 SE7       30.08R
$$

TXZ052-054-060>062-072-078-127-140-154-169-210200-
PERMIAN BASIN/CONCHO VALLEY/BIG COUNTRY/EDWARDS PLATEAU

CITY           SKY/WX    TMP DP  RH WIND       PRES   REMARKS
ABILENE        CLOUDY    50  41  71 SE8       30.12R
BIG SPRING     CLEAR     46  41  84 SE8       30.08R
BROWNWOOD      CLOUDY    46  41  81 E7        30.15R
JUNCTION       PTCLDY    49  43  80 E7        30.11R
MIDLAND        PTCLDY    50  40  68 SE8       30.04R
ODESSA         PTCLDY    51  35  54 S9        30.04R
SAN ANGELO     CLOUDY    52  44  74 SE7       30.08S
SONORA         MOCLDY    50  46  87 CALM      30.13R
SWEETWATER     MOCLDY    50  42  73 SE9       30.11S
WINK           MOCLDY    49  26  41 SE9       30.01R
$$

TXZ055-058-074-075-080-082-210200-
FAR WEST/SOUTHWEST MOUNTAINS/TRANS PECOS

CITY           SKY/WX    TMP DP  RH WIND       PRES   REMARKS
ALPINE         PTCLDY    44  27  51 SW3       30.12R
DRYDEN           N/A     50  47  89 SE8       30.07R
EL PASO        PTCLDY    51  26  37 CALM      30.05S
FORT STOCKTON  PTCLDY    52  42  69 SE10      30.04R
MARFA          MOCLDY    43  25  49 W6        30.10R
PECOS          PTCLDY    53  28  38 SE5       30.02R
PRESIDIO       FAIR      55  33  42 CALM      30.03R
$$

TXZ014-016-019-021>030-083-210200
TEXAS TECH WEST TEXAS MESONET/TEXAS PANHANDLE/NORTHERN SOUTH PLAINS

CITY           SKY/WX    TMP DP  RH WIND       PRES   REMARKS
ABERNATHY 5ENE   N/A     37  34  90 SE8       30.04F WCI  31
AMARILLO 9NNE    N/A     41  34  78 S9        30.00S
AMARILLO 7SSE    N/A     40  35  81 S12       30.02S WCI  34
AMHERST 1NE      N/A     41  34  76 SE6       30.01S
BOOTLEG 11WNW    N/A     37  20  50 SW8       30.01S WCI  31
CANADIAN 6E      N/A     41  35  80 SE10      30.03S
CAPROCK CYN SP   N/A     42  37  83 S9        30.05F
CHILDRESS 2NNE   N/A     47  39  75 S10       30.07R
CLARENDON 2WSW   N/A     40  35  81 S7        30.04R
CLAUDE 12SW      N/A     42  37  80 S10       30.02S
DIMMITT 2NE      N/A     38  34  83 SE10      30.01S WCI  32
FLOYDADA 2NNE    N/A     39  36  88 S6        30.04S WCI  35
FRIONA 2NE       N/A     38  30  74 S9        30.01R WCI  31
GOODLETT 3W      N/A     44  38  82 SE9       30.08R
HART 3N          N/A     36  34  90 SE7       30.02S WCI  31
HEREFORD 2NW     N/A     40  33  75 S9        30.00R WCI  34
MCLEAN 1E        N/A     39  35  86 SE9       30.03R WCI  33
MEMPHIS 1NE      N/A     44  36  74 SE5       30.06R
MULESHOE 2SSW    N/A     39  33  77 SE6       30.01R
OLTON 6S         N/A     39  34  84 SE7       30.03R WCI  34
PALO DURO SP     N/A     42  35  76 S9        30.03S
PAMPA 2E         N/A     37  33  85 SE8       30.02S WCI  30
PLAINVIEW 1S     N/A     40  36  87 S7        30.03S WCI  35
SILVERTON 7ESE   N/A     39  35  86 S8        30.05S WCI  34
TULIA 2ENE       N/A     38  35  92 SE5       30.03S WCI  34
TURKEY 2WSW      N/A     44  38  79 S9        30.05S
UMBARGER 3NNE    N/A     39  34  82 S10       30.01S WCI  32
$$

TXZ033>036-039>041-045>048-210200
TEXAS TECH WEST TEXAS MESONET/SOUTH PLAINS

CITY           SKY/WX    TMP DP  RH WIND       PRES   REMARKS
AIKEN 3WSW       N/A     37  35  90 S7        30.05S WCI  32
ANDREWS 2NE      N/A     48  24  39 CALM      30.03S
ANTON 6SSW       N/A     40  35  81 SE7       30.03R
BROWNFIELD 2S    N/A     39  32  75 E6        30.03S
DENVR CTY 7WNW   N/A     44  27  52 S5        30.02R
GAIL 2ESE        N/A     43  40  88 SE6       30.05S
LAMESA 2SE       N/A     42  39  88 SE6       30.05R
LEVELLAND 4S     N/A     39  30  72 SE7       30.02S WCI  34
LUBBOCK 3WNW     N/A     42  35  74 SE6       30.04S
MORTON 1ENE      N/A     43  32  65 S8        30.01R
ODONNELL 1N      N/A     42  37  80 SE6       30.05S
PLAINS 3N        N/A     41  31  66 SE6       30.02S
RALLS 1SE        N/A     38  36  89 S6        30.06S WCI  34
REESE CENTER     N/A     41  34  77 SE8       30.03S
SEAGRAVES 1SW    N/A     44  28  53 S6        30.03R
SEMINOLE 2NNE    N/A     43  29  57 S6        30.03R
SLATON 2NE       N/A     39  36  88 SE7       30.05S WCI  34
SNYDER 3E        N/A     46  42  84 SE6       30.06S
SUNDOWN 8SW      N/A     37  30  77 SE8       30.03R WCI  30
TAHOKA 3NNE      N/A     38  33  84 SE7       30.04S WCI  33
WOLFFORTH 6SSW   N/A     39  34  82 SE8       30.03S WCI  34
$$

TXZ031-032-036>038-042>044-210200-
TEXAS TECH WEST TEXAS MESONET/ROLLING PLAINS

CITY           SKY/WX    TMP DP  RH WIND       PRES   REMARKS
ASPERMONT 3NE    N/A     45  39  78 E3        30.09S
FLUVANNA 3WNW    N/A     42  38  88 SE7       30.05S
GRAHAM 5SSW      N/A     44  40  88 SE7       30.05S
GUTHRIE 10WSW    N/A     47  40  74 SE6       30.07S
HASKELL 1NW      N/A     45  38  77 SE6       30.09S
JAYTON 1SSE      N/A     47  40  77 E6        30.07F
KNOX CITY 3NW    N/A     42  36  80 SE6       30.10R
LK A HENRY 1NW   N/A     45  41  87 SE5       30.06S
NORTHFIELD 1S    N/A     47  40  75 S8        30.07R
ODELL 4ENE       N/A     42  40  92 SE8       30.12R
PADUCAH 10SW     N/A     48  39  72 S6        30.07S
POST 1NE         N/A     43  40  89 SE5       30.05F
SEYMOUR 3NW      N/A     46  41  85 SE7       30.11S
SPUR 1W          N/A     46  40  80 S2        30.06S
WHITE RVR 6NE    N/A     43  39  88 SE3       30.06R
$$

TXZ052-054-060>062-072-078-127-140-154-169-210200-
TEXAS TECH WEST TEXAS MESONET/PERMIAN BASIN/
CONCHO VALLEY/BIG COUNTRY/EDWARDS PLATEAU

CITY           SKY/WX    TMP DP  RH WIND       PRES   REMARKS
COYANOSA 2N      N/A     51  37  57 E8        30.03R
JUNCTION 1SSW    N/A     49  44  83 N3        30.13R
MERTZON 3NNE     N/A     47  42  84 SE1       30.09S
SAN ANGELO 7NW   N/A     50  42  75 E5        30.09R
STRLNG CT 4WSW   N/A     47  42  85 E2        30.08R
ST LAWRNCE 5SW   N/A     45  41  86 S8        30.07R
SWEETWATR 11SW   N/A     49  42  78 SE7       30.09S
WALL 1E          N/A     49  41  74 SE6       30.10R
$$

TXZ055-058-074-075-080-082-210200-
TEXAS TECH WEST TEXAS MESONET/FAR WEST/SOUTHWEST MOUNTAINS/TRANS PECOS

CITY           SKY/WX    TMP DP  RH WIND       PRES   REMARKS
PRSMN GAP BBNP   N/A     54  43  65 NE12      30.04R
$$


USA.gov is the U.S. government's official web portal to all federal, state and local government web resources and services.